Find Starlink 34804

NORAD ID: 65026 Int'l Des: 2025-161 Owner: SPXS Country: US Constellation: starlink operational
LEOCIRCULAR

Live Position

Loading 3D Globe...

About Starlink 34804

Description loading...

Upcoming Passes

Passes for default location (London). Set your location on the main map for personalized predictions.

Altitude History

Loading altitude history...

Two-Line Element Set

1 65026U 25161M 26104.77409625 .00008786 00000-0 30823-3 0 9995
2 65026 53.1623 126.6548 0000845 62.9142 297.1945 15.30219512 40868
Epoch: Apr 14, 2026 • Age: 14 hours

Current Status

Altitude 477.4 km
Velocity 7.63 km/s
Sub-Earth Point -8.80°S, 144.21°E
Launch Date Jul 30, 2025
Age 0.7 years
Type internet

Technical Details

Classification Payload
Mass 575.00 kg
Dry Mass 530.00 kg
Total Mass 575.00 kg
Length 0.30 m
Diameter 4.10 m
Span 29.00 m
Shape Box + pan
Manufacturer SPXS
Bus Type Starlink V2MO
Phase Status In Orbit
Owner/State SPXS/US

Most Searched